Location: Rotheul
(50.2849°N, 11.2349°E)
Time: 11:57:18
(UTC+01:00)

Envisat - Pass Details

Date: 30 October 2019
Orbit: 764 x 766 km, 98.1° (Epoch: 14 November)

Event Time Altitude Azimuth Distance (km) Brightness Sun altitude
Rises 06:00:32 0° 26° (NNE) 3,243 6.5 -10.2°
Reaches altitude 10° 06:03:31 10° 44° (NE) 2,311 6.0 -9.7°
Maximum altitude 06:07:07 19° 89° (E) 1,750 6.1 -9.2°
Drops below altitude 10° 06:10:43 10° 135° (SE) 2,298 6.4 -8.6°
Sets 06:13:39 0° 152° (SSE) 3,219 6.9 -8.1°
